Hourly Weather Gohad

Today, 3 December, Thursday

Time Temperature Precipitation Wind Pressure Humidity
00:00 +20°C° 0 mm 1 mps 745 mmHg 34%
01:00 +20°C° 0 mm 1 mps 745 mmHg 35%
02:00 +19°C° 0 mm 1 mps 745 mmHg 36%
03:00 +19°C° 0 mm 1 mps 745 mmHg 36%
04:00 +18°C° 0 mm 1 mps 745 mmHg 37%
05:00 +18°C° 0 mm 1 mps 745 mmHg 38%
06:00 +19°C° 0 mm 1 mps 746 mmHg 37%
07:00 +20°C° 0 mm 1 mps 747 mmHg 36%
08:00 +21°C° 0 mm 1 mps 747 mmHg 36%
09:00 +23°C° 0 mm 1 mps 747 mmHg 32%
10:00 +26°C° 0 mm 1 mps 747 mmHg 29%
11:00 +28°C° 0 mm 1 mps 747 mmHg 25%
12:00 +28°C° 0 mm 1 mps 746 mmHg 24%
13:00 +29°C° 0 mm 1 mps 745 mmHg 22%
14:00 +30°C° 0 mm 1 mps 744 mmHg 20%
15:00 +28°C° 0 mm 1 mps 744 mmHg 23%
16:00 +26°C° 0 mm 1 mps 744 mmHg 26%
17:00 +24°C° 0 mm 1 mps 744 mmHg 29%
18:00 +24°C° 0 mm 1 mps 745 mmHg 30%
19:00 +23°C° 0 mm 1 mps 745 mmHg 31%
20:00 +20°C° 0 mm 0 mps 746 mmHg 32%
21:00 +22°C° 0 mm 1 mps 745 mmHg 32%
22:00 +21°C° 0 mm 1 mps 745 mmHg 33%
23:00 +21°C° 0 mm 1 mps 745 mmHg 33%

Tomorrow, 4 December, Friday

Time Temperature Precipitation Wind Pressure Humidity
00:00 +21°C° 0 mm 1 mps 745 mmHg 34%
01:00 +20°C° 0 mm 1 mps 745 mmHg 36%
02:00 +20°C° 0 mm 1 mps 744 mmHg 37%
03:00 +19°C° 0 mm 1 mps 744 mmHg 39%
04:00 +17°C° 0 mm 0 mps 744 mmHg 40%
05:00 +16°C° 0 mm 0 mps 744 mmHg 41%
06:00 +17°C° 0 mm 0 mps 745 mmHg 40%
07:00 +20°C° 0 mm 1 mps 745 mmHg 39%
08:00 +22°C° 0 mm 1 mps 746 mmHg 38%
09:00 +24°C° 0 mm 1 mps 746 mmHg 34%
10:00 +26°C° 0 mm 1 mps 746 mmHg 30%
11:00 +28°C° 0 mm 1 mps 746 mmHg 25%
12:00 +29°C° 0 mm 1 mps 745 mmHg 23%
13:00 +30°C° 0 mm 2 mps 744 mmHg 21%
14:00 +31°C° 0 mm 2 mps 744 mmHg 19%
15:00 +29°C° 0 mm 1 mps 743 mmHg 22%
16:00 +27°C° 0 mm 1 mps 743 mmHg 25%
17:00 +25°C° 0 mm 1 mps 743 mmHg 27%
18:00 +24°C° 0 mm 1 mps 744 mmHg 28%
19:00 +23°C° 0 mm 1 mps 744 mmHg 29%
20:00 +23°C° 0 mm 1 mps 744 mmHg 30%
21:00 +22°C° 0 mm 1 mps 744 mmHg 31%
22:00 +22°C° 0 mm 1 mps 744 mmHg 32%
23:00 +21°C° 0 mm 1 mps 744 mmHg 33%

Day after tomorrow, 5 December, Saturday

Time Temperature Precipitation Wind Pressure Humidity
00:00 +21°C° 0 mm 1 mps 744 mmHg 35%
01:00 +20°C° 0 mm 1 mps 744 mmHg 36%
02:00 +19°C° 0 mm 2 mps 744 mmHg 37%
03:00 +19°C° 0 mm 1 mps 744 mmHg 38%
04:00 +19°C° 0 mm 1 mps 744 mmHg 39%
05:00 +19°C° 0 mm 1 mps 744 mmHg 40%
06:00 +20°C° 0 mm 1 mps 745 mmHg 39%
07:00 +20°C° 0 mm 1 mps 746 mmHg 39%
08:00 +21°C° 0 mm 1 mps 746 mmHg 38%
09:00 +24°C° 0 mm 1 mps 746 mmHg 34%
10:00 +26°C° 0 mm 2 mps 746 mmHg 29%
11:00 +28°C° 0 mm 2 mps 746 mmHg 25%
12:00 +29°C° 0 mm 1 mps 745 mmHg 23%
13:00 +30°C° 0 mm 1 mps 745 mmHg 21%
14:00 +29°C° 0 mm 0 mps 744 mmHg 20%
15:00 +29°C° 0 mm 1 mps 744 mmHg 23%
16:00 +27°C° 0 mm 1 mps 744 mmHg 26%
17:00 +25°C° 0 mm 1 mps 744 mmHg 29%
18:00 +25°C° 0 mm 1 mps 744 mmHg 31%
19:00 +24°C° 0 mm 2 mps 745 mmHg 32%
20:00 +23°C° 0 mm 2 mps 745 mmHg 34%
21:00 +23°C° 0 mm 2 mps 745 mmHg 35%
22:00 +22°C° 0 mm 1 mps 745 mmHg 36%
23:00 +22°C° 0 mm 1 mps 746 mmHg 37%

6 December, Sunday

Time Temperature Precipitation Wind Pressure Humidity
00:00 +21°C° 0 mm 1 mps 746 mmHg 38%
01:00 +20°C° 0 mm 2 mps 745 mmHg 39%
02:00 +19°C° 0 mm 2 mps 745 mmHg 40%
03:00 +20°C° 0 mm 1 mps 745 mmHg 41%
04:00 +19°C° 0 mm 1 mps 746 mmHg 42%
05:00 +19°C° 0 mm 1 mps 746 mmHg 43%
06:00 +20°C° 0 mm 1 mps 746 mmHg 43%
07:00 +21°C° 0 mm 1 mps 747 mmHg 42%
08:00 +22°C° 0 mm 1 mps 748 mmHg 41%
09:00 +24°C° 0 mm 1 mps 748 mmHg 37%
10:00 +26°C° 0 mm 1 mps 748 mmHg 32%
11:00 +28°C° 0 mm 1 mps 748 mmHg 28%
12:00 +29°C° 0 mm 1 mps 747 mmHg 26%
13:00 +30°C° 0 mm 1 mps 746 mmHg 24%
14:00 +31°C° 0 mm 1 mps 746 mmHg 23%
15:00 +29°C° 0 mm 1 mps 746 mmHg 26%
16:00 +28°C° 0 mm 1 mps 746 mmHg 29%
17:00 +26°C° 0 mm 1 mps 746 mmHg 33%
18:00 +25°C° 0 mm 1 mps 746 mmHg 34%
19:00 +22°C° 0 mm 0 mps 746 mmHg 35%
20:00 +21°C° 0 mm 0 mps 746 mmHg 37%
21:00 +21°C° 0 mm 0 mps 746 mmHg 37%
22:00 +21°C° 0 mm 0 mps 746 mmHg 38%
23:00 +20°C° 0 mm 0 mps 746 mmHg 39%

7 December, Monday

Time Temperature Precipitation Wind Pressure Humidity
00:00 +20°C° 0 mm 0 mps 746 mmHg 39%
01:00 +20°C° 0 mm 0 mps 746 mmHg 40%
02:00 +21°C° 0 mm 1 mps 746 mmHg 40%
03:00 +21°C° 0 mm 1 mps 746 mmHg 42%
04:00 +20°C° 0 mm 1 mps 746 mmHg 43%
05:00 +20°C° 0 mm 1 mps 746 mmHg 44%
06:00 +20°C° 0 mm 1 mps 747 mmHg 44%
07:00 +21°C° 0 mm 1 mps 748 mmHg 44%
08:00 +22°C° 0 mm 1 mps 748 mmHg 43%
09:00 +24°C° 0 mm 1 mps 748 mmHg 39%
10:00 +26°C° 0 mm 2 mps 748 mmHg 34%
11:00 +28°C° 0 mm 2 mps 748 mmHg 30%
12:00 +29°C° 0 mm 2 mps 748 mmHg 27%
13:00 +30°C° 0 mm 3 mps 747 mmHg 24%
14:00 +31°C° 0 mm 3 mps 747 mmHg 21%
15:00 +29°C° 0 mm 3 mps 747 mmHg 24%
16:00 +27°C° 0 mm 2 mps 747 mmHg 28%
17:00 +25°C° 0 mm 2 mps 747 mmHg 31%
18:00 +24°C° 0 mm 1 mps 747 mmHg 32%
19:00 +24°C° 0 mm 1 mps 747 mmHg 32%
20:00 +23°C° 0 mm 1 mps 748 mmHg 33%
21:00 +23°C° 0 mm 1 mps 748 mmHg 33%
22:00 +22°C° 0 mm 1 mps 748 mmHg 33%
23:00 +22°C° 0 mm 1 mps 748 mmHg 34%

8 December, Tuesday

Time Temperature Precipitation Wind Pressure Humidity
00:00 +21°C° 0 mm 1 mps 748 mmHg 35%
01:00 +21°C° 0 mm 1 mps 748 mmHg 36%
02:00 +20°C° 0 mm 1 mps 747 mmHg 37%
03:00 +20°C° 0 mm 1 mps 747 mmHg 38%
04:00 +19°C° 0 mm 1 mps 747 mmHg 39%
05:00 +19°C° 0 mm 1 mps 747 mmHg 40%
06:00 +20°C° 0 mm 1 mps 748 mmHg 39%
07:00 +21°C° 0 mm 1 mps 749 mmHg 38%
08:00 +22°C° 0 mm 1 mps 749 mmHg 38%
09:00 +24°C° 0 mm 1 mps 749 mmHg 34%
10:00 +26°C° 0 mm 1 mps 749 mmHg 30%
11:00 +28°C° 0 mm 2 mps 749 mmHg 26%
12:00 +29°C° 0 mm 2 mps 748 mmHg 25%
13:00 +30°C° 0 mm 2 mps 747 mmHg 24%
14:00 +30°C° 0 mm 2 mps 747 mmHg 23%
15:00 +28°C° 0 mm 2 mps 746 mmHg 26%
16:00 +27°C° 0 mm 2 mps 746 mmHg 30%
17:00 +25°C° 0 mm 2 mps 746 mmHg 33%
18:00 +24°C° 0 mm 1 mps 746 mmHg 34%
19:00 +23°C° 0 mm 1 mps 747 mmHg 35%
20:00 +22°C° 0 mm 1 mps 747 mmHg 36%
21:00 +22°C° 0 mm 1 mps 747 mmHg 36%
22:00 +22°C° 0 mm 1 mps 747 mmHg 36%
23:00 +22°C° 0 mm 1 mps 747 mmHg 36%
Show more

We Need Your Consent

Meteoprog and our Service Providers may store and access personal data such as cookies, device identifiers or other similar technologies on your device and process such data to personalise content and ads, as well as provide social media features and to analyse the traffic.

  • Store and/or access information on your device

    Cookies, device identifiers or other information can be stored or accessed on your device for the purposes indicated above.

  • Personalised ads and content, ad and content measurement, audience insights, and products development

    Ads and content can be personalised based on a profile. More data can be added to better personalise ads and content. Ad and content performance can be measured. Insights about the audience who saw the ads and content can be derived. Such data can be used to develop or improve user’s experience, systems and software.

By clicking ‘I Agree’ you will allow the use of indicated cookies, device identifiers, web beacons or other similar technologies. Your settings can be changed in the browser on your device.

For certain purposes, legitimate interests may be relied on, rather than consent. You can read more about this in our Privacy and Cookie Policy.